Flag for U.S.A. Weather past 2 weeks in Rochester, New York, U.S.A.

Now
20 °F

Mostly cloudy.


Feels Like: 12 °F
Forecast: 11 / 27 °F
Wind: 6 mph from West

Location: Greater Rochester International Airport

Current Time: Jan 31, 2015 at 7:53:05 PM

Latest Report: Jan 31, 2015 at 6:54 PM


Visibility: 10 mi

Pressure: 30.24 "Hg

Humidity: 68%

Dew point: 11 °F

Location of RochesterLocation

Historic Weather in Rochester — Graph

°F

Rochester temperature yesterday

Maximum temperature yesterday: 31 °F (at 12:54 AM)
Minimum temperature yesterday: 9 °F (at 11:54 PM)
Average temperature yesterday: 20 °F

Past Weeks' High & Low Weather Summary

 TemperatureHumidityPressure
High41 °F (Jan 18, 9:54 AM)89% (Jan 18, 4:54 PM)30.41 "Hg (Jan 18, 4:54 PM)
Low-3 °F (Jan 17, 7:54 AM)27% (Jan 29, 1:54 PM)29.47 "Hg (Jan 24, 5:58 PM)
Average21 °F71%30.05 "Hg
* Reported Jan 16 6:54 PM — Jan 31 6:54 PM, Rochester, Weather by CustomWeather, © 2014

Note: Actual official high and low records may vary slightly from our data, if they occured in-between our weather recording intervals... More about our weather records

Advertising

Rochester weather history for previous 24 hours

 ConditionsComfort  
Time TempWeatherWind HumidityBarometerVisibility
6:54 PM
Jan 31
20 °FMostly cloudy.6 mph68%30.24 "Hg10 mi
5:54 PM22 °FPassing clouds.6 mph62%30.24 "Hg10 mi
4:54 PM22 °FBroken clouds.9 mph60%30.24 "Hg10 mi
3:54 PM21 °FPartly sunny.9 mph65%30.24 "Hg9 mi
2:54 PM21 °FBroken clouds.13 mph60%30.26 "Hg10 mi
1:54 PM20 °FBroken clouds.8 mph60%30.27 "Hg10 mi
12:54 PM17 °FPartly sunny.5 mph68%30.30 "Hg10 mi
11:54 AM15 °FLight snow. Mostly cloudy.7 mph70%30.34 "Hg9 mi
10:54 AM12 °FLight snow. Overcast.5 mph80%30.36 "Hg6 mi
9:54 AM12 °FLight snow. Overcast.5 mph77%30.37 "Hg2 mi
9:01 AM10 °FLight snow. Overcast.6 mph80%30.33 "Hg3 mi
7:54 AM7 °FOvercast.7 mph79%30.37 "Hg9 mi
6:54 AM6 °FLight snow. Ice fog.5 mph83%30.35 "Hg4 mi
5:54 AM6 °FLight snow. Overcast.6 mph83%30.35 "Hg7 mi
4:54 AM2 °FLight snow. Overcast.6 mph83%30.35 "Hg7 mi
3:54 AM2 °FLight snow. Passing clouds.6 mph80%30.36 "Hg6 mi
2:54 AM2 °FPassing clouds.6 mph76%30.37 "Hg10 mi
1:54 AM6 °FPassing clouds.5 mph69%30.37 "Hg10 mi
12:54 AM8 °FPassing clouds.8 mph66%30.36 "Hg10 mi
11:54 PM
Jan 30
9 °FPassing clouds.9 mph66%30.36 "Hg10 mi
10:54 PM11 °FPassing clouds.13 mph64%30.35 "Hg10 mi
9:54 PM11 °FOvercast.10 mph67%30.34 "Hg10 mi
8:54 PM12 °FLight snow. Overcast.16 mph67%30.34 "Hg8 mi
7:54 PM13 °FLight snow. Overcast.15 mph70%30.32 "Hg5 mi
Weather by CustomWeather, © 2014

See weather overviewHow to use our weather pages